Regional Weather Roundup
Issued by NWS

Home | Current Version | Previous Version | Graphics & Text | Print | Product List | Glossary On
Versions: 1 2 3 4 5 6 7 8 9 10 11 12 13 14 15 16 17 18 19 20 21 22 23 24 25 26 27 28 29 30 31 32 33 34 35 36 37 38 39 40 41 42 43 44 45 46 47 48 49 50
000
ASUS43 KLMK 191202
RWRKY
KENTUCKY REGIONAL WEATHER ROUNDUP
NATIONAL WEATHER SERVICE LOUISVILLE KY
700 AM EST MON FEB 19 2018

NOTE "FAIR" INDICATES FEW OR NO CLOUDS BELOW 12,000 FEET
WITH NO SIGNIFICANT WEATHER AND/OR OBSTRUCTIONS TO VISIBILITY.

KYZ001>023-026-027-061>063-070>075-191300-
WESTERN AND SOUTH CENTRAL KENTUCKY

CITY           SKY/WX    TMP DP  RH WIND       PRES   REMARKS
PADUCAH        CLOUDY    61  55  81 S14G24    30.03F
HENDERSON      MOCLDY    58  55  90 S20       30.04R
OWENSBORO      CLOUDY    57  55  93 S14       30.06S
HOPKINSVILLE   MOCLDY    57  56  97 SE7       30.11F
BOWLING GREEN  MOCLDY    59  57  93 S10       30.14S
GLASGOW        NOT AVBL
$$

KYZ024-025-028>034-038-045-046-053-191300-
NORTH CENTRAL KENTUCKY

CITY           SKY/WX    TMP DP  RH WIND       PRES   REMARKS
LOUISVILLE/SDF CLOUDY    60  55  83 S13       30.07F
LOUISVILLE/LOU CLOUDY    60  56  86 S13       30.08S
FORT KNOX      CLOUDY    58  56  92 S10       30.09S
$$

KYZ035>037-039>044-047>052-055>060-089>105-191300-
NORTHEAST KENTUCKY

CITY           SKY/WX    TMP DP  RH WIND       PRES   REMARKS
LEXINGTON      CLOUDY    57  53  86 S14       30.13F
COVINGTON      CLOUDY    55  53  93 S13       30.05F
FRANKFORT      CLOUDY    59  53  80 S10       30.10S
$$

KYZ054-064>069-076>088-106>120-191300-
SOUTHEAST KENTUCKY

CITY           SKY/WX    TMP DP  RH WIND       PRES   REMARKS
JACKSON        MOCLDY    54  49  83 SW5       30.20R
LONDON         CLOUDY    58  53  84 S8        30.20S
SOMERSET       NOT AVBL
MIDDLESBORO    CLOUDY    51  48  90 CALM      30.29R
MONTICELLO     NOT AVBL
$$




USA.gov is the U.S. government's official web portal to all federal, state and local government web resources and services.